Location: ????????
(60.4333°N, 46.4710°E)
Time: 03:47:15
(UTC+00:00)

Cosmos-2242 - Pass Details

Date: 25 November 2020
Orbit: 590 x 618 km, 82.5° (Epoch: 19 January)

Event Time Altitude Azimuth Distance (km) Brightness Sun altitude
Rises 13:08:33 0° 194° (SSW) 2,875 7.2 -7.4°
Reaches altitude 10° 13:10:45 10° 195° (SSW) 1,978 6.3 -7.6°
Maximum altitude 13:15:09 85° 282° (WNW) 629 3.1 -8.1°
Drops below altitude 10° 13:19:36 10° 14° (NNE) 2,000 5.3 -8.6°
Enters shadow 13:21:42 - 15° (NNE) 2,852 6.1 -8.8°
